User: anonymous   Login
Location: Mactaquac Provincial Park
(45.9573°N, 66.8897°W)
Time: 12:38:51
(UTC-04:00)
Language:

Cosmos 1766 - Orbit

View from above orbital plane
View from above orbital plane
View from above satellite
View from above satellite

Ground track
Ground track

The orbit data is extracted from the following two-line orbital elements,

1 16881U 86055A   15059.19305173  .00003597  00000-0  23497-3 0  9999
2 16881 082.5120 124.1653 0012396 065.0248 295.2267 15.07488191554744
Epoch (UTC): 28 February 2015 04:37:59
Eccentricity: 0.0012396
inclination: 82.5120°
perigee height: 535 km
apogee height: 552 km
right ascension of ascending node: 124.1653°
argument of perigee: 65.0248°
revolutions per day: 15.07488191
mean anomaly at epoch: 295.2267°
orbit number at epoch: 55474

The dashed part of the orbit path shows where the satellite is in the earth's shadow,  

DLR